Hourly Data Report for June 01, 2021

TOBERMORY RCS
ONTARIO
Current Station Operator: ECCC - MSC

45°14'00.000" N
81°38'00.000" W
213.50 m
6128330
71767
TTR

Download Data

Hourly Data (June 2021)
Hourly Data Report for June 1, 2021
TIME
LST
Temp Definition
°C
Dew Point Definition
°C
Rel Hum Definition
%
Precip. Amount Definition
mm

Wind Dir Definition
10's deg

Wind Spd Definition
km/h
Visibility Definition
km
Stn Press Definition
kPa
Hmdx Definition


Wind Chill Definition


Weather Definition


00:00 8.2 5.2 81 0.0 15 4   99.55     LegendNANA
01:00 7.0 4.4 84 0.0 20 2   99.55     LegendNANA
02:00 10.2 5.9 75 0.0 28 8   99.55     LegendNANA
03:00 10.3 5.9 74 0.0 31 6   99.53     LegendNANA
04:00 7.6 5.6 87 0.0 20 1   99.56     LegendNANA
05:00 8.4 5.6 82 0.0 29 3   99.59     LegendNANA
06:00 9.2 6.0 81 0.0 24 4   99.64     LegendNANA
07:00 12.9 7.3 69 0.0 24 7   99.68     LegendNANA
08:00 14.3 7.8 65 0.0 29 13   99.71     LegendNANA
09:00 16.1 8.7 61 0.0 29 12   99.73     LegendNANA
10:00 16.3 8.8 61 0.0 23 9   99.74     LegendNANA
11:00 15.7 8.7 63 0.0 22 11   99.75     LegendNANA
12:00 17.3 7.9 54 0.0 23 8   99.74     LegendNANA
13:00 17.8 7.8 52 0.0 24 11   99.71     LegendNANA
14:00 17.9 7.6 51 0.0 22 9   99.69     LegendNANA
15:00 18.0 6.1 46 0.0 21 10   99.66     LegendNANA
16:00 17.6 6.0 47 0.0 21 10   99.66     LegendNANA
17:00 16.7 6.4 51 0.0 21 10   99.66     LegendNANA
18:00 15.8 6.9 56 0.0 23 7   99.62     LegendNANA
19:00 15.1 6.5 56 0.0 20 6   99.58     LegendNANA
20:00 11.7 6.3 69 0.0 17 5   99.58     LegendNANA
21:00 9.9 8.2 89 0.0 16 5   99.60     LegendNANA
22:00 10.0 8.6 91 0.0 20 7   99.63     LegendNANA
23:00 8.4 7.5 94 0.0 14 2   99.60     LegendNANA

Notes on Data Quality.

Legend

  • E = Estimated
  • M = Missing
  • NA = Not Available*
  • [empty] = Indicates an unobserved value
Date modified: